Lubbock, TX

10:17 AM CST on November 21, 2019 (GMT -0600)
Lubbock International

Weather History for KLBB - September, 2019

Change the Weather History Date:

Thursday, September 12, 2019

  Actual Average Record
Temperature  
Mean Temperature 80 °F 73 °F  
Max Temperature 91 °F 86 °F 100 °F (1930)
Min Temperature 69 °F 60 °F 44 °F (1959)
Degree Days  
Heating Degree Days 0 0  
Month to date heating degree days 0 0  
Since 1 July heating degree days 0 0  
Cooling Degree Days 15 8  
Month to date cooling degree days 173 118  
Year to date cooling degree days 1891 1644  
Growing Degree Days 30 (Base 50)    
Moisture  
Dew Point 64 °F    
Average Humidity 62    
Maximum Humidity 87    
Minimum Humidity 40    
Precipitation  
Precipitation 0.00 in 0.08 in 2.35 in (1989)
Month to date precipitation 0.26 1.03  
Year to date precipitation 15.85 14.10  
Snow  
Snow 0.00 in 0.00 in 0.00 in (2002)
Month to date snowfall 0.0 0.0  
Since 1 July snowfall 0.0 0.0  
Since 1 September snowfall 0.0 0.0  
Snow Depth 0.00 in    
Sea Level Pressure  
Sea Level Pressure 29.94 in    
Wind  
Wind Speed 10 mph ()    
Max Wind Speed 28 mph    
Max Gust Speed 36 mph    
Visibility 10.0 miles    
Events      
T = Trace of Precipitation, MM = Missing Value Source: Averaged Metar Reports

Daily Weather History Graph

Daily Weather History Graph

Search for Another Location

Airport or City:

Astronomy

Sep. 12, 2019 Rise Set
Actual Time 7:28 AM CDT 7:58 PM CDT
Civil Twilight 7:03 AM CDT 8:23 PM CDT
Nautical Twilight 6:34 AM CDT 8:52 PM CDT
Astronomical Twilight 6:04 AM CDT 9:22 PM CDT
Moon 7:37 PM CDT (9/12) 5:58 AM CDT (9/12)
Length of Visible Light 13h 19m
Length of Day
12h 29m
Waxing Gibbous, 98% of the Moon is Illuminated
Sep 12
Waxing Gibbous
Sep 13
Full
Sep 21
Last Quarter
Sep 28
New
Oct 5
First Quarter

Hourly Weather History & Observations

Time (CDT) Temp. Heat Index Dew Point Humidity Pressure Visibility Wind Dir Wind Speed Gust Speed Precip Events Conditions
12:53 AM 73.9 °F - 64.9 °F 73% 29.91 in 10.0 mi SSE 9.2 mph - N/A   Mostly Cloudy
1:53 AM 72.0 °F - 64.9 °F 78% 29.91 in 10.0 mi South 8.1 mph - N/A   Scattered Clouds
2:53 AM 73.0 °F - 64.9 °F 76% 29.90 in 10.0 mi South 10.4 mph - N/A   Scattered Clouds
3:53 AM 73.0 °F - 64.9 °F 76% 29.88 in 10.0 mi South 11.5 mph - N/A   Scattered Clouds
4:53 AM 73.0 °F - 64.0 °F 73% 29.89 in 10.0 mi South 10.4 mph - N/A   Scattered Clouds
5:53 AM 71.1 °F - 64.0 °F 78% 29.90 in 10.0 mi South 10.4 mph - N/A   Scattered Clouds
6:53 AM 70.0 °F - 64.0 °F 81% 29.92 in 10.0 mi South 8.1 mph - N/A   Partly Cloudy
7:53 AM 69.1 °F - 64.9 °F 87% 29.94 in 10.0 mi South 8.1 mph - N/A   Partly Cloudy
8:53 AM 73.0 °F - 64.9 °F 76% 29.94 in 10.0 mi South 13.8 mph - N/A   Partly Cloudy
9:53 AM 75.9 °F - 66.0 °F 71% 29.96 in 10.0 mi South 13.8 mph - N/A   Partly Cloudy
10:53 AM 79.0 °F - 66.0 °F 64% 29.96 in 10.0 mi South 17.3 mph - N/A   Partly Cloudy
11:53 AM 82.9 °F 85.0 °F 66.0 °F 56% 29.96 in 10.0 mi South 16.1 mph - N/A   Scattered Clouds
12:53 PM 84.0 °F 85.8 °F 64.9 °F 53% 29.96 in 10.0 mi South 15.0 mph - N/A   Mostly Cloudy
1:53 PM 87.1 °F 88.9 °F 64.9 °F 48% 29.95 in 10.0 mi SSW 12.7 mph 17.3 mph N/A   Scattered Clouds
2:53 PM 88.0 °F 89.3 °F 64.0 °F 45% 29.93 in 10.0 mi South 9.2 mph - N/A   Scattered Clouds
3:53 PM 89.1 °F 90.3 °F 64.0 °F 43% 29.90 in 10.0 mi South 16.1 mph 20.7 mph N/A   Partly Cloudy
4:53 PM 90.0 °F 90.6 °F 63.0 °F 40% 29.88 in 10.0 mi South 9.2 mph - N/A   Scattered Clouds
5:53 PM 88.0 °F 88.4 °F 62.1 °F 42% 29.88 in 10.0 mi South 9.2 mph - N/A   Scattered Clouds
6:53 PM 87.1 °F 87.5 °F 62.1 °F 43% 29.89 in 10.0 mi South 10.4 mph - N/A   Mostly Cloudy
7:53 PM 86.0 °F 86.3 °F 62.1 °F 44% 29.90 in 10.0 mi South 10.4 mph - N/A   Mostly Cloudy
8:53 PM 82.0 °F 83.1 °F 63.0 °F 52% 29.92 in 10.0 mi SSE 9.2 mph - N/A   Mostly Cloudy
9:53 PM 82.0 °F 83.0 °F 62.1 °F 51% 29.96 in 10.0 mi South 9.2 mph - N/A   Scattered Clouds
10:53 PM 75.9 °F - 63.0 °F 64% 29.98 in 10.0 mi ESE 6.9 mph - N/A   Mostly Cloudy
11:43 PM 75.0 °F - 62.1 °F 64% 30.16 in 10.0 mi NE 24.2 mph 31.1 mph N/A   Mostly Cloudy
11:53 PM 71.1 °F - 57.9 °F 63% 30.02 in 10.0 mi NE 19.6 mph 35.7 mph N/A   Overcast